Vorticity
19 9 4 13 -30 -33 -16 7 16 27 50 18 -27 8 13 1 10 6 15 9 8 -5
8 9 25 10 1 2 7 9 8 5 8 11 20 11 9 19 5 11 1 8 5 4
9 4 10 13 17 10 9 3 8 11 10 7 5 10 9 11 7 7 5 7 5 8
6 8 9 12 8 8 11 25 10 10 9 9 18 12 8 10 5 2 1 6 6 8
2 7 2 1 8 4 7 8 5 9 10 10 9 3 17 13 15 17 10 6 6 8
5 3 5 16 14 8 9 8 8 4 9 5 8 23 4 10 -4 3 6 10 10 13
10 17 14 -5 7 10 12 11 18 -4 14 6 16 12 1 -4 1 10 11 11 5 6
19 7 7 8 4 5 9 12 -4 -4 9 6 -7 -18 2 8 5 7 11 11 8 7
18 5 7 14 12 11 5 15 20 24 6 25 24 15 7 6 11 10 7 7 8 7
9 11 14 12 12 13 9 4 3 4 5 7 9 10 9 8 7 7 7 8 8 8
6 6 7 8 10 10 12 10 8 8 7 7 6 7 7 7 9 11 12 10 8 8
1 3 5 5 7 6 6 6 6 6 6 7 5 3 3 8 9 7 7 8 7 7
5 5 5 5 5 6 7 8 9 11 10 9 9 8 7 8 8 8 8 10 9 9
5 7 6 5 5 6 6 6 6 6 6 7 8 9 9 8 8 8 9 9 9 11
Height
5704 5703 5707 5710 5714 5718 5720 5724 5730 5733 5735 5738 5738 5738 5741 5745 5743 5741 5742 5740 5740 5738
5696 5700 5703 5706 5708 5712 5716 5719 5723 5724 5724 5728 5730 5731 5732 5732 5733 5732 5731 5729 5727 5725
5686 5691 5695 5699 5702 5705 5709 5710 5711 5713 5714 5717 5719 5720 5720 5721 5721 5719 5718 5718 5716 5713
5675 5680 5684 5689 5693 5695 5699 5701 5703 5705 5706 5707 5709 5709 5709 5709 5708 5707 5706 5704 5701 5700
5665 5671 5675 5679 5682 5686 5689 5692 5692 5694 5696 5696 5697 5697 5697 5696 5695 5694 5693 5692 5689 5688
5659 5666 5664 5671 5674 5675 5677 5680 5681 5682 5683 5684 5683 5683 5682 5683 5682 5681 5680 5679 5677 5675
5653 5655 5658 5662 5663 5664 5667 5670 5670 5669 5672 5673 5672 5672 5671 5671 5669 5669 5668 5667 5665 5663
5645 5647 5648 5651 5653 5653 5655 5657 5658 5658 5661 5661 5660 5658 5658 5657 5656 5656 5655 5654 5651 5649
5637 5640 5641 5643 5645 5645 5647 5648 5648 5650 5650 5649 5649 5648 5646 5645 5645 5644 5643 5641 5638 5636
5630 5632 5633 5634 5633 5635 5636 5636 5637 5638 5638 5638 5637 5636 5635 5634 5633 5631 5629 5626 5623 5620
5622 5622 5624 5624 5625 5628 5626 5627 5627 5626 5626 5626 5625 5624 5623 5621 5618 5616 5613 5610 5607 5603
5609 5610 5611 5613 5615 5615 5615 5615 5615 5614 5614 5613 5612 5610 5608 5606 5603 5600 5597 5594 5591 5587
5603 5603 5603 5604 5603 5603 5603 5603 5602 5601 5600 5599 5597 5595 5593 5591 5588 5585 5582 5579 5574 5571
5596 5596 5596 5596 5595 5594 5594 5593 5591 5589 5587 5585 5583 5581 5579 5576 5573 5570 5567 5563 5558 5555